Regional Weather Roundup
Issued by NWS

Home | Current Version | Previous Version | Text Only | Print | Product List | Glossary Off
Versions: 1 2 3 4 5 6 7 8 9 10 11 12 13 14 15 16 17 18 19 20 21 22 23 24 25 26 27 28 29 30 31 32 33 34 35 36 37 38 39 40 41 42 43 44 45 46 47 48 49 50

000
ASUS43 KOAX 212002
RWRNE

WEATHER ROUNDUP FOR NEBRASKA
NATIONAL WEATHER SERVICE OMAHA NE
200 PM CST TUE NOV 21 2017

NOTES: SATELLITE DATA IS BEING USED TO AUGMENT CLOUD COVER ABOVE
       12000 FEET.
       "FAIR" INDICATES FEW OR NO CLOUDS BELOW 12,000 FEET WITH NO
       SIGNIFICANT WEATHER AND/OR OBSTRUCTIONS TO VISIBILITY.


NEZ001>004-019>022-054>056-212100-
NEBRASKA PANHANDLE

CITY           SKY/WX    TMP DP  RH WIND       PRES   REMARKS
SCOTTSBLUFF    SUNNY     47  24  40 W12       30.29F
ALLIANCE       SUNNY     44  26  49 NW12      30.28F
CHADRON        SUNNY     42  26  53 NW13G21   30.30F
GORDON         MOCLDY    37  25  61 NW7       30.29F WCI  32
KIMBALL        SUNNY     45  28  50 NW14      30.29F
SIDNEY         SUNNY     45  27  49 N10       30.30S
$$

NEZ057>060-069>072-079>082-212100-
SOUTHWEST NEBRASKA

CITY           SKY/WX    TMP DP  RH WIND       PRES   REMARKS
NORTH PLATTE   SUNNY     44  17  33 N17G28    30.32R
IMPERIAL       SUNNY     46  23  40 N13       30.31F
LEXINGTON      SUNNY     41  14  32 N22G29    30.32R
MCCOOK         SUNNY     46  19  34 N21G26    30.32R
OGALLALA       SUNNY     44  26  47 N13G18    30.31S
$$

NEZ005>010-023>029-035>040-094-212100-
NORTH CENTRAL NEBRASKA

CITY           SKY/WX    TMP DP  RH WIND       PRES   REMARKS
VALENTINE      SUNNY     29   8  41 NW17G26   30.35S WCI  17
AINSWORTH      SUNNY     27   8  44 NW18G26   30.34S WCI  14
BROKEN BOW     SUNNY     36  10  34 N25G32    30.32R WCI  24
O`NEILL        SUNNY     26  15  63 NW21      30.35S WCI  11
ORD            SUNNY     32   9  38 N20G28    30.32S WCI  20
THEDFORD       SUNNY     37  15  42 N23       30.33F WCI  25
$$

NEZ041-046>049-061>064-073>077-083>087-212100-
SOUTH CENTRAL NEBRASKA

CITY           SKY/WX    TMP DP  RH WIND       PRES   REMARKS
GRAND ISLAND   SUNNY     34  10  37 N24G32    30.32R WCI  21
AURORA         SUNNY     33  10  38 N23       30.32R WCI  21
HASTINGS       SUNNY     38   7  27 N26G35    30.31R WCI  26
HEBRON         SUNNY     40   9  27 N17G29    30.29R WCI  32
HOLDREGE       SUNNY     40  15  37 N18G29    30.30S WCI  31
KEARNEY        SUNNY     39   8  27 N22G29    30.32R WCI  29
YORK           SUNNY     34  14  44 N16G29    30.31R WCI  23
$$

NEZ011>018-030>034-042>045-212100-
NORTHEAST NEBRASKA

CITY           SKY/WX    TMP DP  RH WIND       PRES   REMARKS
NORFOLK        SUNNY     29  11  47 NW23      30.31R WCI  15
ALBION         SUNNY     30  13  49 NW22      30.32R WCI  17
BLAIR          SUNNY     32  14  47 N23G30    30.27R WCI  19
COLUMBUS       SUNNY     30  13  49 NW23G29   30.32R WCI  17
FREMONT        SUNNY     32  13  44 NW23      30.31S WCI  19
TEKAMAH        SUNNY     32  11  41 NW23G29   30.30R WCI  19
WAYNE          SUNNY     29   7  38 NW20G28   30.31S WCI  16
$$

NEZ050>053-065>068-078-088>093-212100-
SOUTHEAST NEBRASKA

CITY           SKY/WX    TMP DP  RH WIND       PRES   REMARKS
LINCOLN        SUNNY     36  12  37 N21G30    30.31R WCI  25
OMAHA EPPLEY   SUNNY     33  13  43 NW26G32   30.27R WCI  20
BEATRICE       SUNNY     38  13  36 N21       30.28R WCI  28
FALLS CITY     SUNNY     38  14  37 NW20G29   30.23R WCI  28
NEBRASKA CITY  SUNNY     33  15  47 N18G31    30.26R WCI  22
PLATTSMOUTH    SUNNY     33  15  47 NW21G29   30.26R WCI  21
$$

NEZ044-045-051>053-067-212100-
OMAHA AREA

CITY           SKY/WX    TMP DP  RH WIND       PRES   REMARKS
OMAHA EPPLEY   SUNNY     33  13  43 NW26G32   30.27R WCI  20
BLAIR          SUNNY     32  14  47 N23G30    30.27R WCI  19
FREMONT        SUNNY     32  13  44 NW23      30.31S WCI  19
MILLARD        SUNNY     33  14  45 NW17G30   30.29R WCI  23
OFFUTT AFB     SUNNY     33  11  40 NW15G25   30.28R WCI  23
PLATTSMOUTH    SUNNY     33  15  47 NW21G29   30.26R WCI  21
WAHOO          FAIR      33  12  42 N26G35    30.30R WCI  19
$$




USA.gov is the U.S. government's official web portal to all federal, state and local government web resources and services.